Погода в Житомире

Погода в Житомире : погода сейчас, прогноз погоды и архив. Всё, что Вы хотите узнать о погоде в Житомире!

Хотите узнать прогноз погоды в Житомире? Тогда Вам сюда: Погода в Житомире

Поиск расширенной информации на нашем сайте:

Другие новости

Новости СМИ2

Главная страница сайта

Новости сайта

03.07.2017

Напоминаем, что на нашем специализированном сайте Метеоцентр.Азия вы можете получить высокодетализированные автоматические прогнозы погоды по пунктам России, СНГ и мира в авиационном формате (включающие направление и скорость ветра, видимость, явления погоды, количество и форму облачности, нижнюю и верхнюю границу облачности).


Погода в Житомире - сегодня

Время (UTC), дата Ветер
(°,м/с) 
Видим.   Явления Облачность Т
(°С)
Тd
(°С)
f(%) Тe
(°С)
Pmin
(гПа)
dP
(гПа)
Po
(мм)
O2
(г/м3)
Тmin Tmax R s Состояние
почвы
18 14.10.17 320 (СЗ) 4000 м  слаб. дождь  10/0 средняя 
[As op]
+8.4 +6.7 89 +9  1019.7  -0.5  745  290    +10.7  0.0     
21 14.10.17 270 (З) 4000 м  слаб. дождь  10/8 300 м средняя 
[Frnb|As op]
+9.8 +9.2 96 +10  1017.9  -1.6  744  288           
00 15.10.17 290 (З) 4000 м  слаб. морось{дождь}  10/10 180 м 
[St]
+12 +11.6 97 +16  1017.2  -0.5  743  285         
03 15.10.17 290 (З) 4000 м  дымка{морось}  10/10 150 м 
[St]
+13.6 +12.9 96 +19  1017.2  0.2  743  283           
06 15.10.17 300 (СЗ) 4000 м  слаб. ливневой дождь  10/10 240 м кучево-дожд. 
[Cb cap]
+14.6 +13.5 93 +21  1017.3  0.2  744  282  +8.2       
09 15.10.17 300 (СЗ) 10 км  {ливн. осадки}  10/10 360 м 
[St]
+15.6 +13.7 88 +23  1017.5  0.3  744  281           
12 15.10.17 280 (З) 10 км  в посл. час ливневой дождь  10/10 330 м кучево-дожд. 
[Cb cap]
+15.4 +14 91 +22  1016.1  -1.4  743  280         
15 15.10.17 340 (С) 4000 м  слаб. ливневой дождь  10/10 300 м кучево-дожд. 
[Cb cap]
+13 +11.9 93 +17  1018.4  744  284           
18 15.10.17 320 (СЗ) 10 км  {ливн. осадки}  ясно 
+10.8 +8.8 87 +11  1020.9  2.2  746  288    +16.2     
21 15.10.17 320 (СЗ) 4000 м  дымка  ясно 
+9.6 +8.4 92 +11  1023.1  747  289           
00 16.10.17 280 (З) 4000 м  дымка  ясно 
+8 +7.1 94 +9  1024.1  0.8  748  292           
03 16.10.17 300 (СЗ) 4000 м  дымка  ясно 
+7.9 +7.3 96 +9  1025.2  1.1  749  292           
06 16.10.17 300 (СЗ) 2000 м  дымка  10/10 180 м 
[St]
+8.4 +8 97 +9  1026.1  0.9  749  292  +7.4         
09 16.10.17 290 (З) 10 км    4/0 верхняя 
[Ci fib]
+12.4 +7.9 74 +13  1025.4  -0.3  749  287           
12 16.10.17 280 (З) 10 км    4/0 верхняя 
[Ci]
+16.6 +6.9 53 +17  1023.5  -1.5  748  283           
15 16.10.17 260 (З) 10 км    ясно 
+16 +6.7 54 +17  1022.4  -1.1  747  283           
18 16.10.17 тихо ()   10 км    5/0 верхняя 
[Ci fib]
+11.8 +9.6 86 +13  1022.3  -0.4  747  287    +17.1       
21 16.10.17 260 (З) 4000 м  дымка  4/0 верхняя 
[Ci fib]
+11.8 +10.8 94 +15  1021.5  -0.8  746  286           
00 17.10.17 260 (З) 4000 м  дымка  ясно 
+12.4 +11.1 92 +16  1021.3  -0.1  746  286           
03 17.10.17 270 (З) 4000 м  дымка  ясно 
+11.4 +10.4 94 +14  1021.4  746  287           
06 17.10.17 280 (З) 4000 м  дымка  8/4 300 м верхняя 
[St|Ci]
+11.6 +10.8 95 +15  1022.6  1.1  747  287  +10.6         
09 17.10.17 310 (СЗ) 1000 м  слаб. морось{туман}  10/10 120 м 
[St]
+12.6 +12.2 97 +18  1023.8  1.3  748  286           
12 17.10.17 310 (СЗ) 4000 м  дымка{морось, туман}  10/10 270 м 
[St]
+13.8 +12.3 91 +19  1023.8  0.1  748  285      0.0     
15 17.10.17 330 (СЗ) 10 км    9/4 300 м средняя 
[Sc|Ac trans]
+14.6 +11.6 82 +19  1023.5  -0.2  748  284           
18 17.10.17 300 (СЗ) 10 км    9/9 500 м 
[Sc]
+13.4 +11.3 87 +18  1023.4  -0.2  748  285    +14.6  0.0     
Время (UTC), дата Ветер
(°,м/с) 
Видим.   Явления Облачность Т
(°С)
Тd
(°С)
f(%) Тe
(°С)
Pmin
(гПа)
dP
(гПа)
Po
(мм)
O2
(г/м3)
Тmin Tmax R s Состояние
почвы

Для получения пояснительной информации подведите курсор к названию столбца.

ПОГОДА в Житомире - архив

Всё, что Вы хотите узнать о погоде в Житомире - удобно и подробно!

Выберите нужную дату (начиная с 1 января 2015* года) и нажмите кнопку "Найти".
Будут отображены архивные сводки погоды по пункту Житомир, начиная с указанной даты.


Отображать данные в формате CSV (для использования в таблицах Excel)


Внимание! Наш архив погоды предназначен исключительно для личного некоммерческого использования в познавательных целях. Если Вам необходимы официальные справки о состоянии погоды (для производственных, юридических, коммерческих и т.п. целей), обращайтесь в органы Росгидромета.

*Примечание: данная дата относится к архиву по метеостанциям СССР (Россия, СНГ, Балтия).
Архив по метеостанциям Зарубежной Европы и Азии (кроме Китая) хранится 10 дней, по другим регионам земного шара (Китай, Африка, Америка, Австралия, Океания) - 1 день.

Житомир - район местоположения метеостанции


Название, широта, долгота, высота метеостанции:
Житомир 50.2°ш. 28.7°д. 224 м над ур. моря [Украина]

Дополнительная информация

В oтличие oт бoльшинства пoгoдных сайтoв мы публикуем пoдрoбную метеoинфoрмацию в детальнoм прoфессиoнальнoм фoрмате.

Характеристики температуры и влажнoсти вoздуха измеряются на высoте 2 м в тени вдали oт зданий и деревьев.
Скoрoсть ветра измеряется на высoте 10 м (на урoвне рoста челoвека скoрoсть ветра ниже в 1.5-2 раза). Если метеoстанция нахoдится в гoрoде или в лесу, тo скoрoсть ветра занижена на 2-4 м/с пo сравнению с oткрытым местoм. Скoрoсть ветра над акватoриями крупных рек и oзёр, а также на вершинах хoлмoв на 2-5 м/с выше, чем в oбычных услoвиях.
Атмoсфернoе давление в разных тoчках местнoсти мoжет значительнo oтличаться oт давления на метеoстанции, в зависимoсти oт услoвий рельефа (при пoдъёме на 10 м давление пoнижается примернo на 1 мм рт.ст.).